Waarnemingen

Advertentie
Mijn weer
Valencia/Manises, Spanje (8284): temperatuur & dauwpunt: 06.11.2019 08:00:00 - 12.11.2019 08:00:00 (CET)Valencia/Manises, Spanje (8284): windsnelheid: 06.11.2019 08:00:00 - 12.11.2019 08:00:00 (CET)Valencia/Manises, Spanje (8284): windrichting: 06.11.2019 08:00:00 - 12.11.2019 08:00:00 (CET)Valencia/Manises, Spanje (8284): luchtdruk: 06.11.2019 08:00:00 - 12.11.2019 08:00:00 (CET)Valencia/Manises, Spanje (8284): zicht: 06.11.2019 08:00:00 - 12.11.2019 08:00:00 (CET)
Datum & Tijd tt [°C] td [°C] ff [km/u] ff [kn] dd ppp [hPa] vv [km]
12.11.2019 08:00:00 - - - - - - -
12.11.2019 07:00:00 13,1 -1,3 37 20 N 1012,3 25
12.11.2019 06:00:00 13,1 -2,4 41 22 NNW 1012,5 -
12.11.2019 05:00:00 12,4 -1,1 26 14 NW 1012,3 -
12.11.2019 04:00:00 9,9 0,5 11 6 WZW 1012,5 20
12.11.2019 03:00:00 11,7 -0,2 15 8 WNW 1012,5 -
12.11.2019 02:00:00 13,0 -1,0 34 18 NNW 1012,6 -
12.11.2019 01:00:00 13,4 -0,6 34 18 NNW 1013,3 20
12.11.2019 00:00:00 13,2 -1,0 22 12 NW 1013,0 -
11.11.2019 23:00:00 14,0 -0,6 34 18 NNW 1013,6 -
11.11.2019 22:00:00 14,9 0,3 37 20 NNW 1013,3 20
11.11.2019 21:00:00 15,7 2,7 26 14 N 1012,7 -
11.11.2019 20:00:00 16,4 4,2 31 17 NNW 1012,4 -
11.11.2019 19:00:00 16,3 4,5 31 17 NNW 1012,0 50
11.11.2019 18:00:00 16,8 4,1 34 18 NW 1011,3 -
11.11.2019 17:00:00 17,8 3,4 22 12 NNW 1011,0 -
11.11.2019 16:00:00 18,3 2,2 22 12 NW 1010,9 50
11.11.2019 15:00:00 18,3 1,1 22 12 WNW 1010,5 -
11.11.2019 14:00:00 18,7 -0,1 21 11 NNW 1010,7 -
11.11.2019 13:00:00 18,7 -0,2 18 10 NW 1011,5 50
11.11.2019 12:00:00 17,4 0,0 15 8 WNW 1012,7 -
11.11.2019 11:00:00 15,8 0,7 16 9 NW 1013,1 -
11.11.2019 10:00:00 14,0 1,2 11 6 W 1013,7 50
11.11.2019 09:00:00 10,4 1,0 16 9 WZW 1013,7 -
11.11.2019 08:00:00 8,9 0,6 15 8 WZW 1014,0 -
11.11.2019 07:00:00 8,3 0,0 16 9 WZW 1013,8 30
11.11.2019 06:00:00 6,7 -0,5 9 5 ZW 1014,5 -
11.11.2019 05:00:00 7,2 -0,8 11 6 WNW 1014,3 -
11.11.2019 04:00:00 9,1 -1,3 16 9 WNW 1014,4 20
11.11.2019 03:00:00 7,8 -1,7 16 9 W 1014,7 -
11.11.2019 02:00:00 10,3 -2,7 21 11 NW 1014,3 -
11.11.2019 01:00:00 9,6 -1,8 16 9 ZW 1015,1 20
11.11.2019 00:00:00 9,7 -1,1 13 7 WNW 1014,5 -
10.11.2019 23:00:00 11,0 -1,2 5 3 W 1014,0 -
10.11.2019 22:00:00 12,6 -0,9 24 13 NNW 1013,6 25
10.11.2019 21:00:00 10,8 -0,4 8 4 W 1013,5 -
10.11.2019 20:00:00 12,5 -1,6 9 5 W 1013,5 -
10.11.2019 19:00:00 14,3 -1,7 21 11 N 1012,8 25
10.11.2019 18:00:00 14,8 -1,3 21 11 N 1012,0 -
10.11.2019 17:00:00 16,1 -1,1 13 7 NNW 1011,2 -
10.11.2019 16:00:00 15,8 -0,9 16 9 N 1011,0 50
10.11.2019 15:00:00 16,7 -1,0 26 14 N 1010,6 -
10.11.2019 14:00:00 17,6 -1,9 8 4 N 1010,9 -
10.11.2019 13:00:00 17,1 -1,6 22 12 NNW 1011,6 50
10.11.2019 12:00:00 15,1 -1,1 11 6 N 1013,1 -
10.11.2019 11:00:00 13,9 -0,3 16 9 NW 1013,4 -
10.11.2019 10:00:00 12,7 0,7 18 10 W 1013,1 50
10.11.2019 09:00:00 11,1 0,5 8 4 WNW 1013,3 -
10.11.2019 08:00:00 9,4 1,1 13 7 NW 1013,0 -
10.11.2019 07:00:00 10,6 0,9 15 8 WNW 1012,6 13
10.11.2019 06:00:00 11,7 1,3 4 2 N 1012,4 -
10.11.2019 05:00:00 11,8 2,0 15 8 W 1012,2 -
10.11.2019 04:00:00 12,4 1,5 28 15 NW 1012,6 13
10.11.2019 03:00:00 12,7 4,1 24 13 NW 1012,7 -
10.11.2019 02:00:00 13,1 7,3 13 7 Z 1012,0 -
10.11.2019 01:00:00 13,4 6,7 18 10 W 1012,4 13
10.11.2019 00:00:00 13,7 6,3 18 10 W 1013,5 -
09.11.2019 23:00:00 14,1 5,7 28 15 W 1013,5 -
09.11.2019 22:00:00 14,5 4,8 21 11 WZW 1014,1 13
09.11.2019 21:00:00 15,2 3,3 24 13 W 1014,6 -
09.11.2019 20:00:00 15,8 2,1 24 13 W 1015,0 -
09.11.2019 19:00:00 15,9 1,6 31 17 W 1015,0 40
09.11.2019 18:00:00 16,3 1,3 28 15 W 1014,6 -
09.11.2019 17:00:00 17,4 0,9 24 13 W 1014,5 -
09.11.2019 16:00:00 17,9 0,1 29 16 W 1014,9 50
09.11.2019 15:00:00 19,5 -0,1 34 18 WZW 1015,3 -
09.11.2019 14:00:00 20,0 0,9 13 7 W 1015,9 -
09.11.2019 13:00:00 18,2 1,0 29 16 W 1017,0 50
09.11.2019 12:00:00 18,3 0,2 24 13 W 1018,0 -
09.11.2019 11:00:00 16,5 0,2 15 8 WNW 1018,9 -
09.11.2019 10:00:00 15,6 0,0 26 14 WNW 1019,0 50
09.11.2019 09:00:00 14,0 -0,4 24 13 NW 1019,2 -
09.11.2019 08:00:00 12,7 -0,3 9 5 W 1018,8 -
09.11.2019 07:00:00 12,4 -0,8 15 8 W 1018,5 30
09.11.2019 06:00:00 12,6 -0,7 18 10 W 1018,0 -
09.11.2019 05:00:00 12,7 -0,6 26 14 W 1017,2 -
09.11.2019 04:00:00 12,8 -0,5 21 11 W 1017,3 30
09.11.2019 03:00:00 12,4 -0,5 24 13 W 1017,4 -
09.11.2019 02:00:00 13,1 -0,6 26 14 W 1017,2 -
09.11.2019 01:00:00 13,0 -0,7 24 13 W 1017,1 30
09.11.2019 00:00:00 13,1 -1,3 21 11 W 1016,5 -
08.11.2019 23:00:00 13,5 -1,7 28 15 W 1016,3 -
08.11.2019 22:00:00 13,1 -1,5 16 9 W 1016,2 30
08.11.2019 21:00:00 12,9 0,6 15 8 WZW 1015,9 -
08.11.2019 20:00:00 13,7 0,0 24 13 WZW 1015,2 -
08.11.2019 19:00:00 14,1 0,3 22 12 WZW 1014,4 13
08.11.2019 18:00:00 15,3 -1,3 24 13 W 1013,6 -
08.11.2019 17:00:00 16,8 -1,4 31 17 W 1012,8 -
08.11.2019 16:00:00 17,4 -1,3 39 21 W 1011,9 50
08.11.2019 15:00:00 17,8 -1,1 34 18 W 1011,7 -
08.11.2019 14:00:00 16,9 -0,3 42 23 W 1011,5 -
08.11.2019 13:00:00 16,0 -0,7 37 20 W 1012,1 50
08.11.2019 12:00:00 13,2 -0,5 29 16 W 1012,8 -
08.11.2019 11:00:00 13,0 -0,9 37 20 W 1013,0 -
08.11.2019 10:00:00 13,4 -0,8 31 17 W 1012,8 50
08.11.2019 09:00:00 11,6 -0,6 29 16 W 1012,5 -
08.11.2019 08:00:00 10,5 -1,0 26 14 W 1011,7 -
08.11.2019 07:00:00 9,3 -0,3 18 10 W 1011,3 40
08.11.2019 06:00:00 9,6 0,0 15 8 W 1010,8 -
08.11.2019 05:00:00 10,7 0,1 21 11 W 1010,4 -
08.11.2019 04:00:00 10,7 1,2 26 14 W 1009,9 40
08.11.2019 03:00:00 11,2 1,4 29 16 WNW 1010,1 -
08.11.2019 02:00:00 10,7 1,8 16 9 W 1009,7 -
08.11.2019 01:00:00 11,9 2,1 28 15 W 1009,3 40
08.11.2019 00:00:00 13,2 1,5 44 24 WNW 1009,6 -
07.11.2019 23:00:00 13,9 -0,9 29 16 WNW 1009,5 -
07.11.2019 22:00:00 13,4 -1,0 4 2 W 1009,4 40
07.11.2019 21:00:00 15,3 -1,5 8 4 ZZW 1009,1 -
07.11.2019 20:00:00 16,3 -3,3 26 14 WNW 1008,7 -
07.11.2019 19:00:00 16,7 -1,9 22 12 W 1008,1 40
07.11.2019 18:00:00 18,4 -0,2 18 10 WNW 1007,5 -
07.11.2019 17:00:00 21,1 3,7 28 15 WNW 1006,9 -
07.11.2019 16:00:00 21,0 5,7 22 12 W 1006,8 50
07.11.2019 15:00:00 21,5 6,9 26 14 W 1006,7 -
07.11.2019 14:00:00 21,7 8,0 26 14 WNW 1007,3 -
07.11.2019 13:00:00 20,3 9,5 35 19 W 1008,1 50
07.11.2019 12:00:00 19,1 9,8 29 16 WZW 1009,2 -
07.11.2019 11:00:00 18,5 9,6 29 16 WZW 1009,5 -
07.11.2019 10:00:00 17,5 8,9 16 9 WZW 1009,6 50
07.11.2019 09:00:00 15,0 7,4 11 6 ZZW 1009,7 -
07.11.2019 08:00:00 13,1 6,4 11 6 Z 1009,9 -
07.11.2019 07:00:00 13,6 6,2 13 7 ZW 1009,6 25
07.11.2019 06:00:00 13,0 6,3 18 10 W 1009,8 -
07.11.2019 05:00:00 11,8 5,4 11 6 WZW 1010,4 -
07.11.2019 04:00:00 11,7 5,1 11 6 WZW 1010,7 20
07.11.2019 03:00:00 11,6 5,2 11 6 WZW 1011,6 -
07.11.2019 02:00:00 12,8 5,0 13 7 ZW 1012,1 -
07.11.2019 01:00:00 12,5 4,7 15 8 W 1013,0 20
07.11.2019 00:00:00 13,5 4,1 18 10 W 1013,0 -
06.11.2019 23:00:00 14,8 3,9 15 8 ZW 1013,1 -
06.11.2019 22:00:00 14,2 3,6 18 10 WNW 1012,9 20
06.11.2019 21:00:00 14,7 3,2 18 10 W 1013,2 -
06.11.2019 20:00:00 13,8 4,1 8 4 W 1013,0 -
06.11.2019 19:00:00 18,0 1,9 5 3 ONO 1012,3 50
06.11.2019 18:00:00 19,1 1,6 9 5 NO 1011,5 -
06.11.2019 17:00:00 20,9 1,4 15 8 NO 1011,2 -
06.11.2019 16:00:00 22,4 1,3 4 2 ZO 1011,2 50
06.11.2019 15:00:00 22,5 1,4 4 2 O 1011,3 -
06.11.2019 14:00:00 21,6 1,4 8 4 NNW 1012,0 -
06.11.2019 13:00:00 20,6 1,8 9 5 NW 1012,7 50
06.11.2019 12:00:00 19,7 1,9 15 8 W 1013,4 -
06.11.2019 11:00:00 18,8 2,2 15 8 W 1013,6 -
06.11.2019 10:00:00 17,4 3,1 21 11 WNW 1013,7 50
06.11.2019 09:00:00 15,7 3,0 21 11 WNW 1013,7 -
06.11.2019 08:00:00 12,2 3,5 9 5 WNW 1013,2 -

tt = temperatuur
td = dauwpunt
ff = windsnelheid
dd = windrichting
ppp = luchtdruk
vv = zicht

Weerstations in de omgeving